Погода в Безводном

Россия / Кировская область     57°25′27″N   48°20′43″E
темп.,
°C
ветер,
м/с
пор.,
м/с
влажн.,
%
обл.,
%
осадки,
мм/ч
давл.,
гПа
погр.,
м
6 марта, сб
сб600:00−14сз2394100 0.1 100822
03:00−17сз339297 0.1 101031
06:00−20зсз339640 0.0 101127
09:00−17з359649 0.0 1012214
12:00−13зюз359173 0.0 1013369
15:00−11зюз468885 0.1 1012660
18:00−15зюз3393100 0.0 101226
21:00−17зюз239584 0.0 101220
7 марта, вс
вс700:00−17зюз239872 0.0 101120
03:00−18зюз229979 0.1 101120
06:00−19юз3310096 0.0 101025
09:00−17ююз359679 0.1 1009144
12:00−12ю469132 0.0 1007296
15:00−9ююв598939 0.0 1004527
18:00−10ююв61390100 0.0 1002530
21:00−9ююв71393100 0.5 1000618
8 марта, пн
пн800:00−8ююв61293100 0.4 995645
03:00−8юв71294100 1.0 993641
06:00−8юв61294100 0.7 990565
09:00−8ююз4793100 1.4 990449
12:00−6ю3585100 0.1 991703
15:00−5ююз2391100 0.6 993348
18:00−9з1293100 0.3 99421
21:00−11с3497100 0.3 99574
9 марта, вт
вт900:00−12ссз3796100 0.0 997164
03:00−13ссз4895100 0.3 1000297
06:00−15ссз479595 0.2 1002275
09:00−15ссз479394 0.2 1005408
12:00−13сз4690100 0.1 1007528
15:00−11сз4688100 0.1 1008731
18:00−13сз3696100 0.1 1009161
21:00−15ссз359699 0.3 1011142
10 марта, ср
ср1000:00−17ссз369798 0.1 1012166
03:00−22ссз349993 0.1 101362
06:00−23ссз359896 0.1 1014119
09:00−23ссз359695 0.1 1015240
12:00−20ссз359075 0.0 1015440
15:00−18ссз358888 0.0 1015591
18:00−22ссз2397100 0.0 101620
21:00−25ссз2210095 0.0 101720